Location: Augirein
(42.9320°N, 0.9181°E)
Time: 20:31:31
(UTC+00:00)

Cosmos 1655 Rocket - Pass Details

Date: 20 June 2021
Orbit: 971 x 1005 km, 82.9° (Epoch: 23 July)

Event Time Altitude Azimuth Distance (km) Brightness Sun altitude
Exits shadow 03:17:10 - 203° (SSW) 2,798 5.8 -9.4°
Reaches altitude 10° 03:17:24 10° 204° (SSW) 2,708 5.7 -9.3°
Maximum altitude 03:23:28 55° 281° (WNW) 1,156 4.2 -8.5°
Drops below altitude 10° 03:29:37 10° 360° (N) 2,735 7.0 -7.7°
Sets 03:32:12 0° 4° (N) 3,691 7.8 -7.4°
